Location: Agendoh
(31.0664°N, 8.9343°W)
Time: 07:21:37
(UTC+00:00)

Cosmos 1151 Rocket - Pass Details

Date: 07 July 2022
Orbit: 592 x 614 km, 82.5° (Epoch: 07 August)

Event Time Altitude Azimuth Distance (km) Brightness Sun altitude
Rises 02:45:58 0° 344° (NNW) 2,885 7.0 -28.5°
Reaches altitude 10° 02:48:18 10° 336° (NNW) 1,976 6.0 -28.2°
Enters shadow 02:50:00 21° 324° (NW) 1,378 5.0 -28.0°
